This is the latest recevied weather packets stored in our database for station/object KD0MAC. If no packets are shown the sender has not sent any weather packets the latest 10 day(s).
| Time | Temp. | Humidity | Pressure | Rain* | Wind** | Luminosity | Snow |
|---|---|---|---|---|---|---|---|
| 1788099730 | 23.89° C | 72% | 1011.9 hPa | 0 mm | - | 72 W/m² | - |
| 1788099429 | 23.33° C | 72% | 1011.9 hPa | 0 mm | - | 81 W/m² | - |
| 1788099129 | 23.33° C | 72% | 1012.2 hPa | 0 mm | - | 82 W/m² | - |
| 1788098830 | 23.33° C | 72% | 1012.2 hPa | 0 mm | - | 79 W/m² | - |
| 1788098530 | 23.33° C | 73% | 1012.2 hPa | 0 mm | - | 75 W/m² | - |
| 1788098229 | 23.33° C | 72% | 1011.9 hPa | 0 mm | - | 61 W/m² | - |
| 1788097930 | 23.33° C | 73% | 1011.9 hPa | 0 mm | - | 67 W/m² | - |
| 1788097629 | 22.78° C | 72% | 1011.9 hPa | 0 mm | - | 58 W/m² | - |
| 1788097333 | 22.78° C | 72% | 1011.9 hPa | 0 mm | - | 42 W/m² | - |
| 1788097030 | 23.33° C | 71% | 1011.9 hPa | 0 mm | - | 35 W/m² | - |
| 1788096729 | 23.33° C | 71% | 1011.5 hPa | 0 mm | - | 42 W/m² | - |
| 1788096430 | 23.33° C | 70% | 1011.9 hPa | 0 mm | - | 61 W/m² | - |
| 1788096130 | 23.33° C | 69% | 1011.5 hPa | 0 mm | - | 68 W/m² | - |
| 1788095830 | 23.33° C | 67% | 1011.5 hPa | 0 mm | - | 43 W/m² | - |
| 1788095529 | 23.33° C | 67% | 1011.5 hPa | 0 mm | - | 44 W/m² | - |
| 1788095230 | 23.33° C | 66% | 1011.5 hPa | 0 mm | - | 45 W/m² | - |
| 1788094929 | 23.33° C | 66% | 1011.5 hPa | 0 mm | - | 37 W/m² | - |
| 1788094630 | 23.33° C | 65% | 1011.2 hPa | 0 mm | - | 32 W/m² | - |
| 1788094330 | 23.33° C | 65% | 1011.5 hPa | 0 mm | - | 28 W/m² | - |
| 1788094029 | 23.33° C | 64% | 1011.5 hPa | 0 mm | - | 29 W/m² | - |
| 1788093729 | 23.89° C | 64% | 1011.5 hPa | 0 mm | - | 29 W/m² | - |
| 1788093430 | 23.89° C | 63% | 1011.2 hPa | 0 mm | - | 20 W/m² | - |
| 1788093130 | 23.89° C | 62% | 1011.2 hPa | 0 mm | - | 19 W/m² | - |
| 1788092829 | 23.89° C | 61% | 1011.2 hPa | 0 mm | - | 13 W/m² | - |
| 1788092530 | 23.89° C | 60% | 1011.2 hPa | 0 mm | - | 8 W/m² | - |
* Rain latest hour (hover to see other rain measurements)
** Current wind speed in m/s (hover to see current wind gust speed)